Location: Peach Mountain Observatory
(42.3967°N, 83.9367°W)
Time: 17:30:38
(UTC-04:00)

deb Explorer IX - Pass Details

Date: 29 January 2020
Orbit: 547 x 1100 km, 38.8° (Epoch: 05 April)

Event Time Altitude Azimuth Distance (km) Brightness Sun altitude
Rises 19:39:09 0° 218° (SW) 3,410 ? -21.1°
Reaches altitude 10° 19:41:51 10° 207° (SSW) 2,566 ? -21.6°
Maximum altitude 19:47:09 30° 149° (SSE) 1,687 ? -22.6°
Enters shadow 19:48:00 29° 136° (SE) 1,735 ? -22.7°
Drops below altitude 10° 19:53:01 10° 92° (E) 2,861 - -23.6°
Sets 19:56:12 0° 82° (E) 3,867 - -24.2°
